[[{"header":{"parameterUnit":"m.s-1","parameterCategory":1,"la1":30.2991,"la2":30.254,"lo1":-89.0895,"lo2":-89.0444,"dy":0.0017,"dx":0.0017,"nx":28,"ny":28,"refTime":"2023-07-29T09:00:00:Z","depth":0,"parameterNumber":2,"parameterNumberName":"U-component_of_WINDS"},"data":[0,0,0,0,0,0,0,0,0,0,0,0,0,0,0,0,0,0,0,0,0,0,0,0,0,0,0,0,0,0,0,0,0,0,0,0,0,0,0,0,0,0,0,0,0,0,0,0,0,0,0,0,0,0,0,0,0,0,2.6624,2.6625,0,2.6682,2.6683,2.6684,2.6666,2.6665,2.6664,2.6662,2.6719,2.6722,2.6724,0,0,0,0,0,0,0,0,0,0,0,0,0,2.6494,2.6497,2.6624,2.6625,2.6626,2.6682,2.6683,2.6684,2.6666,2.6665,2.6663,2.6662,2.6718,2.6721,2.6724,0,0,0,0,0,0,0,0,0,0,0,0,0,2.6551,2.6498,2.6624,2.6624,2.6624,2.6682,2.6683,2.6684,2.6666,2.6665,2.6663,2.6661,2.6717,2.6721,2.6725,2.6785,0,0,2.6737,2.6739,0,0,0,0,0,0,0,0,2.6548,2.6556,2.6623,2.6624,2.6625,2.6665,2.6658,2.6718,2.6667,2.665,2.6662,2.666,2.6702,2.6707,2.6722,2.6788,2.679,2.6737,2.674,2.6741,2.6742,0,0,0,0,0,0,0,2.6544,2.6554,2.6647,2.6624,2.6625,2.6619,2.6626,2.6669,2.6686,2.6652,2.6651,2.6658,2.6702,2.6718,2.6723,2.6791,2.6737,2.6741,2.6743,2.6745,2.6906,2.6908,0,0,0,0,0,0,2.654,2.655,2.6645,2.6649,2.6581,2.6623,2.663,2.6654,2.6685,2.6688,2.6659,2.6657,2.6713,2.6719,2.6725,2.6795,2.6741,2.6745,2.6747,2.6904,2.6906,2.6908,0,0,0,0,0,0,2.6538,2.6549,2.6643,2.6599,2.6611,2.6627,2.6654,2.6656,2.6672,2.6691,2.6693,2.6673,2.6711,2.672,2.677,2.6797,2.6747,2.675,2.6902,2.6905,2.6907,2.6938,0,0,0,0,0,0,2.6534,2.6548,2.6572,2.66,2.6613,2.6688,2.6656,2.6658,2.6679,2.6676,2.6704,2.6707,2.6711,2.6764,2.6774,2.6802,2.6753,2.6899,2.6903,2.6907,2.6934,2.6941,2.6947,0,0,0,0,0,2.6529,2.6579,2.6574,2.6585,2.6644,2.669,2.6697,2.6701,2.6682,2.6705,2.6717,2.6706,2.6793,2.6769,2.678,2.681,2.6898,2.6902,2.6906,2.6931,2.694,2.6947,0,0,0,0,0,0,2.6553,2.6582,2.6577,2.6637,2.6661,2.6687,2.6716,2.671,2.6739,2.6735,2.6738,2.6744,2.6795,2.6808,2.6781,2.6868,2.6842,2.6849,2.6858,2.6866,2.6872,2.6867,2.6757,0,0,0,0,0,2.6566,2.6601,2.6624,2.6675,2.6687,2.67,2.672,2.6721,2.6745,2.6755,2.6771,2.6794,2.6826,2.6847,2.6878,2.6937,2.6941,2.6962,2.6969,2.6974,2.6979,2.7007,2.7016,2.6923,2.6923,2.6923,0,0,2.6591,2.6611,2.6634,2.668,2.6699,2.6734,2.6709,2.6747,2.6773,2.6761,2.6808,2.6821,2.6846,2.69,2.6925,2.6912,2.7006,2.6979,2.6983,2.6985,2.7013,2.7021,2.7029,2.6926,2.6925,2.6925,0,0,2.6655,2.6675,2.6718,2.6737,2.6766,2.6773,2.6784,2.681,2.6818,2.6866,2.6857,2.6887,2.6943,2.6961,2.6977,2.7046,2.7036,2.7057,2.7089,2.7117,2.7124,2.7131,2.7152,2.716,2.7062,2.7062,2.7062,0,2.6683,2.6736,2.6741,2.678,2.6799,2.679,2.6832,2.685,2.6887,2.69,2.6886,2.6955,2.6972,2.7028,2.7045,2.706,2.7069,2.7052,2.7123,2.713,2.7136,2.7156,2.7165,2.7064,2.7064,2.7064,2.7063,0,2.6767,2.6804,2.6835,2.6871,2.6894,2.6934,2.6943,2.6966,2.6965,2.6973,2.7021,2.7041,2.7075,2.7089,2.7088,2.7144,2.7135,2.7123,2.7096,2.7147,2.7166,2.7174,2.7067,2.7066,2.7065,2.7065,0,0,2.6847,2.6884,2.6895,2.6909,2.694,2.6968,2.7007,2.704,2.7058,2.7084,2.7114,2.7162,2.7149,2.7168,2.7169,2.7194,2.7243,2.7178,2.7178,2.7187,2.7303,2.731,2.7319,2.7238,2.724,2.7241,2.73,0,2.691,2.6979,2.6984,2.7046,2.7078,2.707,2.7103,2.7125,2.7134,2.7162,2.7171,2.7203,2.7187,2.7197,2.7222,2.7232,2.7266,2.7229,2.7264,2.7266,2.7255,2.733,2.7338,2.7393,2.7308,2.7309,2.731,0,2.6994,2.7022,2.7086,2.711,2.7124,2.7154,2.7183,2.7211,2.7234,2.7238,2.7259,2.7256,2.7294,2.7268,2.7319,2.7293,2.7308,2.7315,2.7317,2.7318,2.7289,2.733,2.741,2.7417,2.7322,2.7321,2.732,0,2.7041,2.7095,2.714,2.7153,2.7183,2.7203,2.7216,2.7238,2.7257,2.7282,2.7294,2.7324,2.7339,2.7362,2.7366,2.7348,2.7416,2.7391,2.7418,2.7418,2.7431,2.743,2.7512,2.7446,2.7446,2.7446,2.7445,0,2.711,2.7149,2.7161,2.7188,2.7231,2.7236,2.7278,2.7289,2.7308,2.7336,2.7332,2.7358,2.7363,2.739,2.7394,2.7434,2.7442,2.7445,2.7444,2.7443,2.7442,2.7451,2.7446,2.7448,2.7447,2.7447,2.7447,0,2.7169,2.7179,2.7227,2.7251,2.7257,2.7287,2.7307,2.7332,2.7341,2.7376,2.7384,2.7397,2.7428,2.7436,2.7473,2.7475,2.7521,2.7519,2.7513,2.7512,2.7538,2.7534,2.7626,2.7637,2.7567,2.7567,2.7568,0,2.7211,2.7241,2.7267,2.7286,2.73,2.733,2.7349,2.7354,2.7374,2.7401,2.7423,2.7454,2.7478,2.7528,2.754,2.7567,2.7564,2.7594,2.7568,2.7565,2.7561,2.7558,2.7559,2.7598,2.7599,2.76,2.76,0,2.7283,2.7286,2.7314,2.7343,2.7366,2.7389,2.7411,2.7426,2.7434,2.7456,2.7488,2.7507,2.7545,2.7574,2.7602,2.7614,2.7607,2.7609,2.7616,2.7613,2.7608,2.7608,2.7523,2.7606,2.7605,2.7605,2.7605,2.7604,2.7333,2.7358,2.7379,2.741,2.7427,2.7447,2.7471,2.7483,2.751,2.754,2.7542,2.7576,2.7596,2.7633,2.7646,2.7672,2.7662,2.7673,2.7676,2.7677,2.7678,2.7606,2.7677,2.7677,2.7677,2.7677,2.7677,0,2.7402,2.7415,2.7443,2.7474,2.7497,2.7491,2.7514,2.7534,2.7564,2.7584,2.7608,2.7643,2.7671,2.7685,2.7713,2.773,2.7728,2.7737,2.7734,2.7736,2.7687,2.7676,2.7738,2.7738,2.7738,2.7738,2.7738,2.7738,2.744,2.7481,2.7486,2.7535,2.7548,2.7581,2.7595,2.7612,2.7628,2.7668,2.7691,2.77,2.7717,2.7746,2.777,2.7774,2.7783,2.7793,2.7794,2.7747,2.774,2.7734,2.7724,2.7795,2.7795,2.7841,2.7842,2.7842]},{"header":{"parameterUnit":"m.s-1","parameterCategory":1,"la1":30.2991,"la2":30.254,"lo1":-89.0895,"lo2":-89.0444,"dy":0.0017,"dx":0.0017,"nx":28,"ny":28,"refTime":"2023-07-29T09:00:00:Z","depth":0,"parameterNumber":3,"parameterNumberName":"V-component_of_WINDS"},"data":[0,0,0,0,0,0,0,0,0,0,0,0,0,0,0,0,0,0,0,0,0,0,0,0,0,0,0,0,0,0,0,0,0,0,0,0,0,0,0,0,0,0,0,0,0,0,0,0,0,0,0,0,0,0,0,0,0,0,1.5485,1.5485,0,1.5525,1.5525,1.5526,1.5494,1.5492,1.5491,1.549,1.5529,1.5531,1.5533,0,0,0,0,0,0,0,0,0,0,0,0,0,1.5378,1.538,1.5485,1.5485,1.5486,1.5525,1.5525,1.5526,1.5494,1.5492,1.5491,1.5489,1.5528,1.5531,1.5534,0,0,0,0,0,0,0,0,0,0,0,0,0,1.5422,1.5381,1.5485,1.5475,1.5474,1.5525,1.5525,1.5526,1.5494,1.5492,1.549,1.5488,1.5527,1.5531,1.5534,1.5596,0,0,1.5544,1.5546,0,0,0,0,0,0,0,0,1.5419,1.5426,1.5476,1.5476,1.5475,1.5502,1.5502,1.5549,1.5495,1.5487,1.549,1.5487,1.5522,1.5525,1.5537,1.5598,1.5599,1.5545,1.5547,1.5548,1.5549,0,0,0,0,0,0,0,1.5416,1.5424,1.5501,1.5476,1.5476,1.5467,1.5471,1.5511,1.5515,1.5487,1.5485,1.549,1.5521,1.5534,1.5538,1.56,1.5545,1.5548,1.555,1.5551,1.571,1.5713,0,0,0,0,0,0,1.5415,1.5421,1.5499,1.5502,1.5442,1.5471,1.5475,1.5496,1.5514,1.5515,1.5492,1.5489,1.5529,1.5534,1.5539,1.5611,1.5548,1.5552,1.5554,1.5708,1.5711,1.5713,0,0,0,0,0,0,1.5412,1.5422,1.5498,1.5461,1.547,1.5475,1.5498,1.5497,1.551,1.5518,1.5518,1.5505,1.5528,1.5534,1.5582,1.5612,1.5553,1.5556,1.5706,1.5709,1.5712,1.5757,0,0,0,0,0,0,1.5409,1.5421,1.5446,1.5462,1.5472,1.5541,1.55,1.55,1.5517,1.5513,1.553,1.5531,1.5527,1.5577,1.5585,1.5616,1.5559,1.5703,1.5707,1.5711,1.5753,1.5761,1.5769,0,0,0,0,0,1.5406,1.5457,1.5447,1.5457,1.5503,1.5543,1.5548,1.5543,1.5519,1.5543,1.5548,1.553,1.5608,1.5582,1.5591,1.5623,1.5701,1.5706,1.5711,1.5749,1.576,1.5768,0,0,0,0,0,0,1.5444,1.5459,1.5448,1.5506,1.5523,1.5537,1.5567,1.5554,1.5578,1.5573,1.5565,1.5569,1.5618,1.5625,1.5596,1.5683,1.565,1.5657,1.5676,1.5686,1.5694,1.5691,1.5562,0,0,0,0,0,1.5459,1.5491,1.5502,1.5552,1.5561,1.5563,1.558,1.5574,1.5591,1.5598,1.5606,1.5623,1.565,1.5669,1.5695,1.5754,1.5756,1.578,1.5788,1.5795,1.58,1.583,1.584,1.5729,1.5729,1.5729,0,0,1.5491,1.5503,1.5524,1.556,1.5573,1.5604,1.5569,1.5605,1.5628,1.5603,1.5648,1.5654,1.5672,1.5725,1.5749,1.5733,1.5832,1.5801,1.5806,1.5808,1.5836,1.5847,1.5856,1.5733,1.5732,1.5731,0,0,1.5565,1.5578,1.562,1.5633,1.5653,1.5653,1.5663,1.5679,1.5682,1.5727,1.5708,1.5735,1.5784,1.5797,1.5809,1.5886,1.587,1.5895,1.5936,1.5965,1.5974,1.5981,1.6007,1.6017,1.5901,1.5901,1.5901,0,1.5602,1.565,1.5644,1.568,1.5696,1.5675,1.5717,1.5729,1.5756,1.5767,1.5749,1.5808,1.5818,1.5873,1.5891,1.5903,1.5913,1.5893,1.5973,1.5981,1.5988,1.6012,1.6022,1.5904,1.5903,1.5903,1.5903,0,1.5693,1.5727,1.5759,1.5785,1.5804,1.5843,1.5841,1.5861,1.5853,1.5855,1.59,1.5912,1.5939,1.5951,1.5944,1.6004,1.5994,1.5975,1.5942,1.6001,1.6024,1.6034,1.5908,1.5907,1.5906,1.5905,0,0,1.5794,1.5815,1.5826,1.5837,1.5856,1.5881,1.5918,1.5945,1.5961,1.598,1.601,1.6051,1.6033,1.6047,1.6041,1.6067,1.6124,1.6044,1.6044,1.6057,1.6189,1.6203,1.6214,1.6114,1.6116,1.6117,1.6187,0,1.5867,1.5933,1.5927,1.5988,1.6018,1.5997,1.6029,1.6044,1.6046,1.6071,1.6073,1.6101,1.6076,1.6085,1.6109,1.6112,1.615,1.6107,1.614,1.6142,1.6136,1.6226,1.6241,1.6306,1.6196,1.6198,1.6199,0,1.5962,1.5984,1.6048,1.6061,1.6073,1.6102,1.6125,1.6149,1.6164,1.6164,1.618,1.6169,1.6204,1.6171,1.6219,1.619,1.6203,1.6206,1.6209,1.6211,1.6174,1.623,1.6327,1.6337,1.6213,1.6212,1.6211,0,1.6027,1.6072,1.6116,1.6126,1.6142,1.6163,1.617,1.6183,1.6199,1.6219,1.6229,1.6253,1.6265,1.6283,1.6278,1.6255,1.6327,1.6294,1.6327,1.6327,1.6342,1.6341,1.6443,1.6353,1.6353,1.6352,1.6352,0,1.6109,1.6149,1.6145,1.6172,1.6215,1.6207,1.625,1.6255,1.6266,1.6293,1.6277,1.6302,1.6294,1.6318,1.6314,1.6354,1.636,1.636,1.6358,1.6361,1.636,1.6369,1.6363,1.6355,1.6354,1.6354,1.6353,0,1.6188,1.6188,1.6234,1.6245,1.6248,1.628,1.6289,1.6313,1.6314,1.6347,1.6355,1.6355,1.6383,1.638,1.6411,1.6408,1.6456,1.645,1.6451,1.6449,1.6482,1.6479,1.6591,1.6605,1.6507,1.6508,1.6509,0,1.6241,1.627,1.6285,1.6301,1.631,1.6337,1.6353,1.6346,1.6363,1.6382,1.6403,1.6429,1.645,1.6494,1.6497,1.652,1.6513,1.6551,1.6516,1.6517,1.6512,1.651,1.6512,1.6557,1.6559,1.6559,1.656,0,1.6333,1.633,1.6354,1.6377,1.6396,1.6414,1.6431,1.6445,1.6439,1.6459,1.6487,1.6502,1.6533,1.6559,1.658,1.6586,1.6572,1.6571,1.658,1.6582,1.6581,1.6581,1.6469,1.6568,1.6568,1.6567,1.6567,1.6566,1.6399,1.6424,1.6437,1.6464,1.6475,1.649,1.6513,1.6516,1.654,1.6564,1.6559,1.6589,1.6602,1.6629,1.6638,1.6661,1.6647,1.666,1.6663,1.6666,1.6669,1.6578,1.6665,1.6665,1.6664,1.6664,1.6664,0,1.6489,1.6496,1.6521,1.6543,1.6564,1.6549,1.6565,1.6583,1.6611,1.6624,1.6644,1.6675,1.6699,1.6703,1.6726,1.6743,1.6737,1.6749,1.6748,1.6749,1.6681,1.6671,1.6754,1.6754,1.6754,1.6754,1.6754,1.6754,1.6538,1.6579,1.6578,1.6623,1.663,1.6661,1.6671,1.6684,1.6694,1.673,1.675,1.6753,1.6761,1.6784,1.6805,1.6806,1.6814,1.6829,1.6827,1.6763,1.6754,1.6745,1.6736,1.6831,1.6831,1.6892,1.6893,1.6894]}]]